Weather History for Bishop, CA

Change the Weather History Date:

Monday, December 10, 2012

  Actual Average Record
Temperature  
Mean Temperature 47 °F 38 °F  
Max Temperature 68 °F 54 °F 72 °F (1958)
Min Temperature 25 °F 22 °F 6 °F (2013)
Degree Days  
Heating Degree Days 18 27  
Month to date heating degree days 193 263  
Since 1 July heating degree days 1014 1164  
Cooling Degree Days 0 0  
Month to date cooling degree days 0 0  
Year to date cooling degree days 1161 1104  
Moisture  
Dew Point 16 °F    
Average Humidity 37    
Maximum Humidity 63    
Minimum Humidity 11    
Precipitation  
Precipitation 0.00 in 0.02 in 0.14 in (1984)
Month to date precipitation 0.02 0.19  
Year to date precipitation 2.73 4.57  
Snow  
Snow 0.00 in 0.00 in T in (1985)
Month to date snowfall 0.0 0.3  
Since 1 July snowfall 0.0 0.7  
Snow Depth 0.00 in    
Sea Level Pressure  
Sea Level Pressure 30.16 in    
Wind  
Wind Speed 8 mph (NW)    
Max Wind Speed 25 mph    
Max Gust Speed 32 mph    
Visibility 10 miles    
Events      
T = Trace of Precipitation, MM = Missing Value Source: NWS Daily Summary

Daily Weather History Graph

Daily Weather History Graph

Search for Another Location

Airport:

Trip Planner

Search our weather history database for the weather conditions in past years. The results will help you decide how hot, cold, wet, or windy it might be!

Date:

Astronomy

Dec. 10, 2012 Rise Set
Actual Time 6:57 AM PST 4:35 PM PST
Civil Twilight 6:28 AM PST 5:04 PM PST
Nautical Twilight 5:55 AM PST 5:37 PM PST
Astronomical Twilight 5:23 AM PST 6:09 PM PST
Moon 3:48 AM PST (12/10) 2:26 PM PST (12/10)
Length of Visible Light 10h 36m
Length of Day
9h 38m
Waning Crescent, 9% of the Moon is Illuminated
Dec 10
Waning Crescent
Dec 13
New
Dec 19
First Quarter
Dec 28
Full
Jan 4
Last Quarter

Hourly Weather History & Observations

Time (PST) Temp. Windchill Dew Point Humidity Pressure Visibility Wind Dir Wind Speed Gust Speed Precip Events Conditions
12:56 AM 46.0 °F 40.6 °F 21.9 °F 39% 30.18 in 10.0 mi NW 11.5 mph - N/A   Clear
1:56 AM 37.0 °F 31.6 °F 21.0 °F 52% 30.19 in 10.0 mi NNW 6.9 mph - N/A   Clear
2:56 AM 36.0 °F 32.1 °F 21.0 °F 55% 30.22 in 10.0 mi NW 4.6 mph - N/A   Clear
3:56 AM 34.0 °F 29.8 °F 19.9 °F 56% 30.22 in 10.0 mi NNW 4.6 mph - N/A   Clear
4:56 AM 34.0 °F 28.8 °F 21.0 °F 59% 30.21 in 10.0 mi West 5.8 mph - N/A   Clear
5:56 AM 30.9 °F 26.2 °F 19.9 °F 64% 30.22 in 10.0 mi NNW 4.6 mph - N/A   Clear
6:56 AM 28.0 °F 24.2 °F 18.0 °F 66% 30.24 in 10.0 mi East 3.5 mph - N/A   Clear
7:56 AM 35.1 °F - 21.0 °F 57% 30.25 in 10.0 mi Calm Calm - N/A   Clear
8:56 AM 44.1 °F - 24.1 °F 45% 30.25 in 10.0 mi Calm Calm - N/A   Clear
9:56 AM 52.0 °F - 25.0 °F 35% 30.25 in 10.0 mi Variable 3.5 mph - N/A   Clear
10:56 AM 61.0 °F - 26.1 °F 26% 30.20 in 10.0 mi WNW 5.8 mph - N/A   Clear
11:56 AM 63.0 °F - 25.0 °F 24% 30.16 in 10.0 mi WSW 5.8 mph - N/A   Clear
12:56 PM 68.0 °F - 16.0 °F 14% 30.11 in 10.0 mi WNW 12.7 mph 20.7 mph N/A   Clear
1:56 PM 66.9 °F - 10.0 °F 11% 30.09 in 10.0 mi North 17.3 mph 31.1 mph N/A   Clear
2:56 PM 66.0 °F - 12.0 °F 12% 30.09 in 10.0 mi North 15.0 mph 24.2 mph N/A   Clear
3:56 PM 63.0 °F - 10.0 °F 13% 30.09 in 10.0 mi North 12.7 mph - N/A   Clear
4:56 PM 53.1 °F - 6.1 °F 15% 30.11 in 10.0 mi North 9.2 mph - N/A   Clear
5:56 PM 55.0 °F - 5.0 °F 13% 30.12 in 10.0 mi North 12.7 mph - N/A   Clear
6:56 PM 48.9 °F - 9.0 °F 20% 30.16 in 10.0 mi NNW 6.9 mph - N/A   Clear
7:56 PM 48.9 °F - 10.0 °F 21% 30.14 in 10.0 mi West 6.9 mph - N/A   Clear
8:56 PM 48.9 °F - 10.0 °F 21% 30.12 in 10.0 mi NW 10.4 mph - N/A   Clear
9:56 PM 50.0 °F - 9.0 °F 19% 30.12 in 10.0 mi NW 13.8 mph - N/A   Clear
10:56 PM 48.9 °F - 9.0 °F 20% 30.10 in 10.0 mi NW 13.8 mph - N/A   Clear
11:56 PM 42.1 °F 37.1 °F 10.0 °F 27% 30.09 in 10.0 mi NNW 8.1 mph - N/A   Clear